Погода в Желобове

Россия / Рязанская область     53°43′25″N   40°45′07″E
темп.,
°C
ветер,
м/с
пор.,
м/с
влажн.,
%
обл.,
%
осадки,
мм/ч
давл.,
гПа
погр.,
м
16 апреля, пт
пт1600:00+12юз2277100 0.7 101537
03:00+11ююв117699 0.8 101610
06:00+11зсз0178100 0.0 101610
09:00+13ссв2369100 0.6 1017249
12:00+18вюв354799 0.0 10171055
15:00+20вюв5736100 0.0 10162216
18:00+18в4845100 0.0 1016272
21:00+13зюз2680100 5.2 1018140
17 апреля, сб
сб1700:00+12ссв2286100 2.1 101939
03:00+11всв468654 2.4 1019127
06:00+10всв61189100 0.1 1018284
09:00+12в7107498 0.5 1018586
12:00+17вюв71155100 0.0 10181476
15:00+13ю5677100 1.7 1017569
18:00+9ю5987100 10.4 1019755
21:00+8ю138897 13.9 1020325
18 апреля, вс
вс1800:00+7в2492100 0.0 1021187
03:00+6вюв2493100 0.0 102185
06:00+6юв229262 0.0 102065
09:00+9юв227323 0.0 1020526
12:00+10ю346997 0.4 1020764
15:00+11ю226484 0.6 1020644
18:00+11в226583 0.4 1020779
21:00+8св579298 1.2 1021297
19 апреля, пн
пн1900:00+6всв3694100 0.1 1021218
03:00+5всв3597100 0.1 1021145
06:00+6всв3796100 0.0 1021211
09:00+8в5786100 0.0 1021442
12:00+12в7869100 0.4 10211086
15:00+10в8107882 1.8 1021822
18:00+8в8108199 0.0 1022883
21:00+6в7128596 0.0 1022624
20 апреля, вт
вт2000:00+6в61191100 0.0 1021625
03:00+6в61191100 0.0 1020634
06:00+6в71390100 0.0 1018657
09:00+7в91686100 0.0 1016716
12:00+8в101885100 0.3 1014874
15:00+7вюв132292100 9.9 10101020
18:00+8вюв122391100 5.1 10071263
21:00+10юв122190100 7.8 10071122